| time (UTC) | temp F | wind direction | speed MPH | gust MPH | rain 1hr in | rain 24hr in | rain mn in | humidity % | barometer mb |
| 20260505153058 | 75 | 144 | 2.0 | 5.0 | 0.00 | 0.00 | 0.00 | 54 | 1007.9 |
| 20260505152557 | 74 | 117 | 1.0 | 5.0 | 0.00 | 0.00 | 0.00 | 55 | 1007.9 |
| 20260505152055 | 74 | 165 | 3.0 | 6.0 | 0.00 | 0.00 | 0.00 | 55 | 1007.9 |
| 20260505151555 | 74 | 202 | 4.0 | 7.0 | 0.00 | 0.00 | 0.00 | 54 | 1008.0 |
| 20260505151057 | 74 | 214 | 2.0 | 6.0 | 0.00 | 0.00 | 0.00 | 53 | 1007.9 |
| 20260505150553 | 73 | 193 | 1.0 | 5.0 | 0.00 | 0.00 | 0.00 | 55 | 1007.8 |
| 20260505140539 | 68 | 174 | 2.0 | 4.0 | 0.00 | 0.00 | 0.00 | 62 | 1007.9 |
| 20260505125029 | 65 | 196 | 0.0 | 1.0 | 0.00 | 0.00 | 0.00 | 64 | 1007.1 |
| 20260505124530 | 65 | 196 | 0.0 | 1.0 | 0.00 | 0.00 | 0.00 | 64 | 1007.0 |
| 20260505124027 | 65 | 196 | 0.0 | 1.0 | 0.00 | 0.00 | 0.00 | 64 | 1006.9 |
| 20260505123530 | 65 | 196 | 0.0 | 1.0 | 0.00 | 0.00 | 0.00 | 65 | 1006.8 |
| 20260505123026 | 65 | 196 | 0.0 | 2.0 | 0.00 | 0.00 | 0.00 | 64 | 1006.7 |
| 20260505122526 | 65 | 196 | 0.0 | 3.0 | 0.00 | 0.00 | 0.00 | 64 | 1006.6 |
| 20260505122028 | 65 | 231 | 1.0 | 3.0 | 0.00 | 0.00 | 0.00 | 64 | 1006.5 |
| 20260505121526 | 65 | 269 | 0.0 | 1.0 | 0.00 | 0.00 | 0.00 | 64 | 1006.5 |
| 20260505121025 | 65 | 270 | 0.0 | 1.0 | 0.00 | 0.00 | 0.00 | 64 | 1006.6 |
| 20260505120525 | 65 | 270 | 0.0 | 0.0 | 0.00 | 0.00 | 0.00 | 64 | 1006.5 |
| 20260505115527 | 65 | 270 | 0.0 | 1.0 | 0.00 | 0.00 | 0.00 | 64 | 1006.4 |
| 20260505115027 | 65 | 271 | 0.0 | 1.0 | 0.00 | 0.00 | 0.00 | 64 | 1006.4 |
| 20260505114527 | 65 | 275 | 0.0 | 2.0 | 0.00 | 0.00 | 0.00 | 64 | 1006.4 |
| 20260505114027 | 65 | 277 | 0.0 | 2.0 | 0.00 | 0.00 | 0.00 | 65 | 1006.3 |
| 20260505113525 | 65 | 279 | 0.0 | 1.0 | 0.00 | 0.00 | 0.00 | 64 | 1006.3 |
| 20260505113025 | 65 | 278 | 0.0 | 0.0 | 0.00 | 0.00 | 0.00 | 64 | 1006.3 |
| 20260505112525 | 65 | 271 | 0.0 | 0.0 | 0.00 | 0.00 | 0.00 | 64 | 1006.4 |
| 20260505112025 | 65 | 270 | 0.0 | 2.0 | 0.00 | 0.00 | 0.00 | 64 | 1006.4 |
| 20260505111533 | 65 | 269 | 0.0 | 2.0 | 0.00 | 0.00 | 0.00 | 63 | 1006.4 |
| 20260505111023 | 65 | 269 | 0.0 | 2.0 | 0.00 | 0.00 | 0.00 | 63 | 1006.2 |
| 20260505110522 | 66 | 269 | 0.0 | 2.0 | 0.00 | 0.00 | 0.00 | 63 | 1006.3 |
| 20260505102013 | 68 | 269 | 0.0 | 2.0 | 0.00 | 0.00 | 0.00 | 60 | 1006.1 |
| 20260505101513 | 68 | 269 | 0.0 | 3.0 | 0.00 | 0.00 | 0.00 | 60 | 1006.1 |
| 20260505101013 | 68 | 269 | 0.0 | 3.0 | 0.00 | 0.00 | 0.00 | 60 | 1006.2 |
| 20260505100513 | 69 | 193 | 0.0 | 3.0 | 0.00 | 0.00 | 0.00 | 60 | 1006.1 |
| 20260505095513 | 69 | 193 | 0.0 | 2.0 | 0.00 | 0.00 | 0.00 | 60 | 1006.0 |
| 20260505095012 | 69 | 193 | 1.0 | 2.0 | 0.00 | 0.00 | 0.00 | 59 | 1006.0 |
| 20260505094612 | 69 | 193 | 0.0 | 2.0 | 0.00 | 0.00 | 0.00 | 59 | 1006.0 |
| 20260505094012 | 69 | 193 | 1.0 | 3.0 | 0.00 | 0.00 | 0.00 | 60 | 1005.9 |
| 20260505093512 | 69 | 193 | 1.0 | 4.0 | 0.00 | 0.00 | 0.00 | 60 | 1006.0 |
| 20260505093012 | 69 | 193 | 2.0 | 4.0 | 0.00 | 0.00 | 0.00 | 60 | 1005.9 |
| 20260505092512 | 69 | 193 | 0.0 | 2.0 | 0.00 | 0.00 | 0.00 | 60 | 1006.0 |
| 20260505092011 | 69 | 193 | 0.0 | 2.0 | 0.00 | 0.00 | 0.00 | 59 | 1006.0 |
| 20260505091511 | 69 | 193 | 0.0 | 2.0 | 0.00 | 0.00 | 0.00 | 59 | 1006.0 |
| 20260505091011 | 69 | 193 | 0.0 | 2.0 | 0.00 | 0.00 | 0.00 | 59 | 1006.1 |
| 20260505090512 | 69 | 193 | 0.0 | 2.0 | 0.00 | 0.00 | 0.00 | 59 | 1005.9 |
| 20260505085510 | 70 | 193 | 0.0 | 4.0 | 0.00 | 0.00 | 0.00 | 59 | 1006.0 |
| 20260505085011 | 70 | 193 | 2.0 | 6.0 | 0.00 | 0.00 | 0.00 | 59 | 1005.9 |
| 20260505084517 | 70 | 220 | 2.0 | 6.0 | 0.00 | 0.00 | 0.00 | 59 | 1006.0 |
| 20260505084010 | 70 | 212 | 2.0 | 4.0 | 0.00 | 0.00 | 0.00 | 58 | 1006.0 |
| 20260505083510 | 70 | 197 | 2.0 | 4.0 | 0.00 | 0.00 | 0.00 | 58 | 1006.2 |
| 20260505083013 | 70 | 185 | 1.0 | 4.0 | 0.00 | 0.00 | 0.00 | 58 | 1006.2 |
| 20260505082509 | 70 | 166 | 1.0 | 3.0 | 0.00 | 0.00 | 0.00 | 58 | 1006.0 |
| 20260505082011 | 70 | 167 | 1.0 | 3.0 | 0.00 | 0.00 | 0.00 | 57 | 1006.3 |
| 20260505081510 | 70 | 166 | 0.0 | 2.0 | 0.00 | 0.00 | 0.00 | 57 | 1006.3 |
| 20260505081010 | 70 | 166 | 0.0 | 2.0 | 0.00 | 0.00 | 0.00 | 57 | 1006.3 |
| 20260505080511 | 71 | 167 | 1.0 | 4.0 | 0.00 | 0.00 | 0.00 | 57 | 1006.4 |
| 20260505075510 | 71 | 193 | 0.0 | 3.0 | 0.00 | 0.00 | 0.00 | 56 | 1006.6 |
| 20260505075014 | 71 | 193 | 0.0 | 1.0 | 0.00 | 0.00 | 0.00 | 56 | 1006.5 |
| 20260505074510 | 71 | 193 | 0.0 | 3.0 | 0.00 | 0.00 | 0.00 | 56 | 1006.6 |
| 20260505074011 | 71 | 193 | 0.0 | 4.0 | 0.00 | 0.00 | 0.00 | 55 | 1006.5 |
| 20260505073511 | 71 | 193 | 2.0 | 4.0 | 0.00 | 0.00 | 0.00 | 55 | 1006.5 |
| 20260505073012 | 71 | 164 | 1.0 | 4.0 | 0.00 | 0.00 | 0.00 | 55 | 1006.6 |
| 20260505072510 | 72 | 186 | 1.0 | 4.0 | 0.00 | 0.00 | 0.00 | 55 | 1006.7 |
| 20260505072010 | 72 | 187 | 2.0 | 5.0 | 0.00 | 0.00 | 0.00 | 54 | 1006.9 |
| 20260505071523 | 72 | 194 | 2.0 | 5.0 | 0.00 | 0.00 | 0.00 | 54 | 1006.9 |
| 20260505071010 | 72 | 191 | 2.0 | 4.0 | 0.00 | 0.00 | 0.00 | 54 | 1006.9 |
| 20260505070510 | 72 | 203 | 3.0 | 9.0 | 0.00 | 0.00 | 0.00 | 53 | 1007.1 |
| 20260505065507 | 72 | 219 | 4.0 | 12.0 | 0.00 | 0.00 | 0.00 | 53 | 1007.1 |
| 20260505065008 | 73 | 181 | 4.0 | 12.0 | 0.00 | 0.00 | 0.00 | 53 | 1007.0 |
| 20260505064516 | 73 | 192 | 7.0 | 10.0 | 0.00 | 0.00 | 0.00 | 53 | 1006.9 |
| 20260505064007 | 73 | 201 | 5.0 | 9.0 | 0.00 | 0.00 | 0.00 | 53 | 1007.2 |
| 20260505063507 | 73 | 196 | 4.0 | 12.0 | 0.00 | 0.00 | 0.00 | 53 | 1007.4 |
| 20260505063013 | 73 | 181 | 6.0 | 12.0 | 0.00 | 0.00 | 0.00 | 52 | 1007.1 |
| 20260505062507 | 73 | 195 | 3.0 | 9.0 | 0.00 | 0.00 | 0.00 | 52 | 1007.3 |
| 20260505062006 | 73 | 179 | 5.0 | 11.0 | 0.00 | 0.00 | 0.00 | 52 | 1007.2 |
| 20260505061509 | 73 | 212 | 4.0 | 12.0 | 0.00 | 0.00 | 0.00 | 52 | 1007.5 |
| 20260505061012 | 73 | 191 | 9.0 | 14.0 | 0.00 | 0.00 | 0.00 | 52 | 1007.5 |
| 20260505060508 | 73 | 168 | 8.0 | 14.0 | 0.00 | 0.00 | 0.00 | 52 | 1007.3 |
| 20260505055506 | 73 | 208 | 5.0 | 10.0 | 0.00 | 0.00 | 0.00 | 53 | 1007.5 |
| 20260505055006 | 72 | 191 | 2.0 | 5.0 | 0.00 | 0.00 | 0.00 | 53 | 1007.6 |
| 20260505054506 | 72 | 165 | 1.0 | 5.0 | 0.00 | 0.00 | 0.00 | 53 | 1007.6 |
| 20260505054006 | 72 | 164 | 2.0 | 6.0 | 0.00 | 0.00 | 0.00 | 53 | 1007.7 |
| 20260505053505 | 73 | 156 | 2.0 | 6.0 | 0.00 | 0.00 | 0.00 | 53 | 1007.8 |
| 20260505053005 | 73 | 186 | 2.0 | 4.0 | 0.00 | 0.00 | 0.00 | 52 | 1007.8 |
| 20260505052506 | 73 | 185 | 2.0 | 5.0 | 0.00 | 0.00 | 0.00 | 52 | 1007.7 |
| 20260505052005 | 73 | 185 | 3.0 | 5.0 | 0.00 | 0.00 | 0.00 | 52 | 1007.8 |
| 20260505051507 | 73 | 165 | 2.0 | 6.0 | 0.00 | 0.00 | 0.00 | 51 | 1007.7 |
| 20260505051008 | 73 | 189 | 3.0 | 9.0 | 0.00 | 0.00 | 0.00 | 51 | 1007.7 |
| 20260505050504 | 74 | 155 | 3.0 | 5.0 | 0.00 | 0.00 | 0.00 | 50 | 1007.6 |
| 20260505041513 | 75 | 186 | 2.0 | 8.0 | 0.00 | 0.00 | 0.00 | 47 | 1007.6 |
| 20260505041006 | 75 | 187 | 3.0 | 8.0 | 0.00 | 0.00 | 0.00 | 46 | 1007.5 |
| 20260505040506 | 75 | 206 | 5.0 | 11.0 | 0.00 | 0.00 | 0.00 | 46 | 1007.5 |
| 20260505035505 | 75 | 202 | 7.0 | 11.0 | 0.00 | 0.00 | 0.00 | 46 | 1007.4 |
| 20260505035003 | 75 | 196 | 3.0 | 6.0 | 0.00 | 0.00 | 0.00 | 46 | 1007.2 |
| 20260505034503 | 75 | 185 | 3.0 | 6.0 | 0.00 | 0.00 | 0.00 | 46 | 1007.2 |
| 20260505034003 | 76 | 190 | 3.0 | 8.0 | 0.00 | 0.00 | 0.00 | 46 | 1007.4 |
| 20260505033502 | 76 | 202 | 3.0 | 10.0 | 0.00 | 0.00 | 0.00 | 45 | 1007.2 |
| 20260505033002 | 76 | 181 | 4.0 | 11.0 | 0.00 | 0.00 | 0.00 | 45 | 1007.2 |
| 20260505032502 | 76 | 201 | 5.0 | 11.0 | 0.00 | 0.00 | 0.00 | 44 | 1007.1 |
| 20260505032004 | 76 | 197 | 6.0 | 15.0 | 0.00 | 0.00 | 0.00 | 44 | 1007.0 |
| 20260505031502 | 77 | 200 | 8.0 | 15.0 | 0.00 | 0.00 | 0.00 | 43 | 1007.0 |
| 20260505031001 | 77 | 191 | 6.0 | 11.0 | 0.00 | 0.00 | 0.00 | 43 | 1007.0 |
| 20260505030501 | 77 | 194 | 6.0 | 13.0 | 0.00 | 0.00 | 0.00 | 43 | 1006.9 |
| 20260505025600 | 77 | 185 | 6.0 | 13.0 | 0.00 | 0.00 | 0.00 | 43 | 1006.6 |
| 20260505025100 | 77 | 204 | 8.0 | 13.0 | 0.00 | 0.00 | 0.00 | 43 | 1006.5 |
| 20260505024602 | 77 | 197 | 7.0 | 12.0 | 0.00 | 0.00 | 0.00 | 43 | 1006.6 |
| 20260505024102 | 77 | 196 | 4.0 | 11.0 | 0.00 | 0.00 | 0.00 | 42 | 1006.8 |
| 20260505023559 | 78 | 175 | 6.0 | 11.0 | 0.00 | 0.00 | 0.00 | 41 | 1006.8 |
| 20260505023108 | 78 | 191 | 4.0 | 10.0 | 0.00 | 0.00 | 0.00 | 41 | 1006.8 |
| 20260505022559 | 78 | 191 | 4.0 | 9.0 | 0.00 | 0.00 | 0.00 | 41 | 1006.7 |
| 20260505022059 | 78 | 202 | 4.0 | 10.0 | 0.00 | 0.00 | 0.00 | 40 | 1006.5 |
| 20260505021601 | 78 | 183 | 4.0 | 10.0 | 0.00 | 0.00 | 0.00 | 40 | 1006.6 |
| 20260505021058 | 79 | 169 | 4.0 | 11.0 | 0.00 | 0.00 | 0.00 | 39 | 1006.4 |
| 20260505020557 | 79 | 190 | 4.0 | 10.0 | 0.00 | 0.00 | 0.00 | 38 | 1006.4 |
| 20260505015557 | 79 | 220 | 3.0 | 10.0 | 0.00 | 0.00 | 0.00 | 38 | 1006.5 |
| 20260505015059 | 79 | 133 | 2.0 | 9.0 | 0.00 | 0.00 | 0.00 | 38 | 1006.4 |
| 20260505014600 | 80 | 185 | 4.0 | 9.0 | 0.00 | 0.00 | 0.00 | 38 | 1006.3 |
| 20260505014056 | 80 | 175 | 4.0 | 10.0 | 0.00 | 0.00 | 0.00 | 37 | 1006.2 |
| 20260505013556 | 80 | 150 | 5.0 | 10.0 | 0.00 | 0.00 | 0.00 | 37 | 1006.1 |
| 20260505013055 | 80 | 164 | 5.0 | 10.0 | 0.00 | 0.00 | 0.00 | 37 | 1006.1 |
| 20260505012556 | 80 | 188 | 5.0 | 10.0 | 0.00 | 0.00 | 0.00 | 36 | 1006.0 |
| 20260505012058 | 81 | 191 | 5.0 | 10.0 | 0.00 | 0.00 | 0.00 | 36 | 1005.9 |
| 20260505011556 | 81 | 149 | 5.0 | 12.0 | 0.00 | 0.00 | 0.00 | 35 | 1005.9 |
| 20260505011057 | 81 | 185 | 6.0 | 12.0 | 0.00 | 0.00 | 0.00 | 34 | 1006.0 |
| 20260505010554 | 82 | 218 | 7.0 | 12.0 | 0.00 | 0.00 | 0.00 | 33 | 1006.0 |
| 20260505005556 | 83 | 193 | 7.0 | 11.0 | 0.00 | 0.00 | 0.00 | 32 | 1006.0 |
| 20260505005055 | 83 | 172 | 6.0 | 12.0 | 0.00 | 0.00 | 0.00 | 31 | 1006.0 |
| 20260505004554 | 83 | 207 | 8.0 | 17.0 | 0.00 | 0.00 | 0.00 | 31 | 1006.0 |
| 20260505004054 | 84 | 205 | 9.0 | 17.0 | 0.00 | 0.00 | 0.00 | 30 | 1005.9 |
| 20260505003557 | 84 | 168 | 9.0 | 17.0 | 0.00 | 0.00 | 0.00 | 29 | 1006.0 |
| 20260505003059 | 84 | 229 | 10.0 | 16.0 | 0.00 | 0.00 | 0.00 | 29 | 1006.1 |
| 20260505002552 | 84 | 201 | 7.0 | 16.0 | 0.00 | 0.00 | 0.00 | 29 | 1006.1 |
| 20260505002052 | 85 | 199 | 8.0 | 13.0 | 0.00 | 0.00 | 0.00 | 28 | 1006.2 |
| 20260505001551 | 84 | 192 | 10.0 | 14.0 | 0.00 | 0.00 | 0.00 | 28 | 1006.2 |
| 20260505001050 | 84 | 184 | 10.0 | 14.0 | 0.00 | 0.00 | 0.00 | 28 | 1006.3 |
| 20260505000549 | 85 | 206 | 9.0 | 15.0 | 0.00 | 0.00 | 0.00 | 29 | 1006.3 |
| 20260504235551 | 85 | 204 | 8.0 | 15.0 | 0.00 | 0.00 | 0.00 | 29 | 1006.5 |
| 20260504235049 | 85 | 207 | 10.0 | 14.0 | 0.00 | 0.00 | 0.00 | 29 | 1006.3 |
| 20260504234548 | 84 | 214 | 9.0 | 15.0 | 0.00 | 0.00 | 0.00 | 29 | 1006.5 |
| 20260504234048 | 84 | 207 | 11.0 | 15.0 | 0.00 | 0.00 | 0.00 | 29 | 1006.6 |
| 20260504233548 | 84 | 198 | 9.0 | 15.0 | 0.00 | 0.00 | 0.00 | 29 | 1006.7 |
| 20260504233049 | 85 | 200 | 11.0 | 15.0 | 0.00 | 0.00 | 0.00 | 28 | 1006.7 |
| 20260504232546 | 85 | 213 | 9.0 | 15.0 | 0.00 | 0.00 | 0.00 | 28 | 1006.7 |
| 20260504232049 | 85 | 215 | 9.0 | 15.0 | 0.00 | 0.00 | 0.00 | 28 | 1006.8 |
| 20260504231547 | 85 | 231 | 9.0 | 16.0 | 0.00 | 0.00 | 0.00 | 28 | 1006.9 |
| 20260504231144 | 86 | 220 | 10.0 | 12.0 | 0.00 | 0.00 | 0.00 | 27 | 1006.9 |
| 20260504230546 | 86 | 200 | 10.0 | 15.0 | 0.00 | 0.00 | 0.00 | 26 | 1006.8 |
| 20260504225545 | 86 | 177 | 10.0 | 14.0 | 0.00 | 0.00 | 0.00 | 26 | 1006.9 |
| 20260504225045 | 86 | 208 | 9.0 | 16.0 | 0.00 | 0.00 | 0.00 | 26 | 1006.9 |
| 20260504224542 | 86 | 220 | 10.0 | 16.0 | 0.00 | 0.00 | 0.00 | 26 | 1007.0 |
| 20260504224045 | 86 | 233 | 10.0 | 14.0 | 0.00 | 0.00 | 0.00 | 25 | 1007.0 |
| 20260504223541 | 86 | 210 | 7.0 | 12.0 | 0.00 | 0.00 | 0.00 | 26 | 1007.2 |
| 20260504223040 | 86 | 245 | 6.0 | 17.0 | 0.00 | 0.00 | 0.00 | 25 | 1007.2 |
| 20260504222540 | 86 | 224 | 8.0 | 17.0 | 0.00 | 0.00 | 0.00 | 26 | 1007.2 |
| 20260504222041 | 86 | 218 | 5.0 | 12.0 | 0.00 | 0.00 | 0.00 | 25 | 1007.2 |
| 20260504221541 | 86 | 237 | 8.0 | 14.0 | 0.00 | 0.00 | 0.00 | 26 | 1007.3 |
| 20260504221038 | 86 | 245 | 7.0 | 15.0 | 0.00 | 0.00 | 0.00 | 26 | 1007.2 |
| 20260504220537 | 86 | 189 | 7.0 | 12.0 | 0.00 | 0.00 | 0.00 | 26 | 1007.2 |
| 20260504215537 | 86 | 215 | 8.0 | 12.0 | 0.00 | 0.00 | 0.00 | 26 | 1007.4 |
| 20260504215036 | 86 | 204 | 9.0 | 12.0 | 0.00 | 0.00 | 0.00 | 26 | 1007.6 |
| 20260504214546 | 86 | 196 | 7.0 | 13.0 | 0.00 | 0.00 | 0.00 | 26 | 1007.7 |
| 20260504214035 | 85 | 200 | 9.0 | 13.0 | 0.00 | 0.00 | 0.00 | 26 | 1007.7 |
| 20260504213534 | 85 | 212 | 8.0 | 12.0 | 0.00 | 0.00 | 0.00 | 26 | 1007.9 |
| 20260504213040 | 85 | 202 | 8.0 | 12.0 | 0.00 | 0.00 | 0.00 | 27 | 1007.9 |
| 20260504212534 | 86 | 193 | 8.0 | 12.0 | 0.00 | 0.00 | 0.00 | 26 | 1007.9 |
| 20260504212032 | 85 | 208 | 3.0 | 14.0 | 0.00 | 0.00 | 0.00 | 27 | 1008.0 |
| 20260504211531 | 85 | 271 | 8.0 | 14.0 | 0.00 | 0.00 | 0.00 | 28 | 1008.2 |
| 20260504211029 | 85 | 191 | 6.0 | 9.0 | 0.00 | 0.00 | 0.00 | 28 | 1008.2 |
| 20260504210529 | 84 | 179 | 8.0 | 16.0 | 0.00 | 0.00 | 0.00 | 28 | 1008.3 |
| 20260504205528 | 84 | 202 | 7.0 | 16.0 | 0.00 | 0.00 | 0.00 | 28 | 1008.7 |
| 20260504205027 | 84 | 200 | 10.0 | 13.0 | 0.00 | 0.00 | 0.00 | 28 | 1008.7 |
| 20260504204528 | 84 | 218 | 5.0 | 13.0 | 0.00 | 0.00 | 0.00 | 29 | 1008.8 |
| 20260504204025 | 84 | 247 | 8.0 | 13.0 | 0.00 | 0.00 | 0.00 | 29 | 1008.7 |
| 20260504203524 | 84 | 214 | 8.0 | 13.0 | 0.00 | 0.00 | 0.00 | 29 | 1008.9 |
| 20260504203024 | 83 | 207 | 7.0 | 13.0 | 0.00 | 0.00 | 0.00 | 31 | 1008.9 |
| 20260504202522 | 83 | 201 | 7.0 | 13.0 | 0.00 | 0.00 | 0.00 | 30 | 1008.9 |
| 20260504202021 | 83 | 177 | 7.0 | 13.0 | 0.00 | 0.00 | 0.00 | 31 | 1009.1 |
| 20260504201519 | 83 | 189 | 9.0 | 13.0 | 0.00 | 0.00 | 0.00 | 31 | 1009.3 |
| 20260504201018 | 82 | 206 | 5.0 | 10.0 | 0.00 | 0.00 | 0.00 | 32 | 1009.3 |
| 20260504200518 | 82 | 248 | 6.0 | 13.0 | 0.00 | 0.00 | 0.00 | 32 | 1009.4 |
| 20260504195519 | 82 | 223 | 5.0 | 12.0 | 0.00 | 0.00 | 0.00 | 32 | 1009.4 |
| 20260504195019 | 81 | 198 | 6.0 | 12.0 | 0.00 | 0.00 | 0.00 | 32 | 1009.6 |
| 20260504194521 | 81 | 214 | 6.0 | 12.0 | 0.00 | 0.00 | 0.00 | 33 | 1009.6 |
| 20260504194021 | 81 | 216 | 8.0 | 13.0 | 0.00 | 0.00 | 0.00 | 33 | 1009.7 |
| 20260504193519 | 81 | 218 | 9.0 | 13.0 | 0.00 | 0.00 | 0.00 | 32 | 1009.6 |
| 20260504193017 | 81 | 219 | 5.0 | 13.0 | 0.00 | 0.00 | 0.00 | 33 | 1009.7 |
| 20260504192516 | 81 | 258 | 4.0 | 12.0 | 0.00 | 0.00 | 0.00 | 32 | 1009.9 |
| 20260504192016 | 81 | 256 | 6.0 | 12.0 | 0.00 | 0.00 | 0.00 | 33 | 1010.0 |
| 20260504191527 | 81 | 208 | 8.0 | 12.0 | 0.00 | 0.00 | 0.00 | 33 | 1009.9 |
| 20260504191016 | 81 | 250 | 8.0 | 11.0 | 0.00 | 0.00 | 0.00 | 32 | 1009.9 |
| 20260504190516 | 81 | 245 | 7.0 | 11.0 | 0.00 | 0.00 | 0.00 | 32 | 1009.9 |
| 20260504185514 | 81 | 212 | 6.0 | 12.0 | 0.00 | 0.00 | 0.00 | 32 | 1010.0 |
| 20260504185013 | 81 | 204 | 7.0 | 14.0 | 0.00 | 0.00 | 0.00 | 32 | 1009.9 |
| 20260504184515 | 81 | 243 | 10.0 | 14.0 | 0.00 | 0.00 | 0.00 | 33 | 1010.0 |
| 20260504184012 | 81 | 228 | 7.0 | 13.0 | 0.00 | 0.00 | 0.00 | 32 | 1010.1 |
| 20260504183511 | 81 | 233 | 9.0 | 13.0 | 0.00 | 0.00 | 0.00 | 33 | 1010.3 |
| 20260504183020 | 81 | 173 | 6.0 | 13.0 | 0.00 | 0.00 | 0.00 | 33 | 1010.6 |
| 20260504182507 | 80 | 202 | 7.0 | 14.0 | 0.00 | 0.00 | 0.00 | 33 | 1010.7 |
| 20260504182007 | 80 | 216 | 9.0 | 14.0 | 0.00 | 0.00 | 0.00 | 33 | 1010.8 |
| 20260504181506 | 80 | 197 | 8.0 | 12.0 | 0.00 | 0.00 | 0.00 | 33 | 1010.8 |
| 20260504181005 | 79 | 202 | 9.0 | 12.0 | 0.00 | 0.00 | 0.00 | 36 | 1010.8 |
| 20260504180509 | 78 | 198 | 7.0 | 13.0 | 0.00 | 0.00 | 0.00 | 37 | 1011.0 |
| 20260504175604 | 78 | 206 | 5.0 | 13.0 | 0.00 | 0.00 | 0.00 | 37 | 1011.0 |
| 20260504175003 | 78 | 228 | 6.0 | 14.0 | 0.00 | 0.00 | 0.00 | 37 | 1011.2 |
| 20260504174503 | 78 | 187 | 8.0 | 14.0 | 0.00 | 0.00 | 0.00 | 37 | 1011.3 |
| 20260504174001 | 77 | 196 | 8.0 | 13.0 | 0.00 | 0.00 | 0.00 | 38 | 1011.1 |
| 20260504173503 | 77 | 212 | 7.0 | 12.0 | 0.00 | 0.00 | 0.00 | 38 | 1011.2 |
| 20260504173106 | 77 | 209 | 8.0 | 12.0 | 0.00 | 0.00 | 0.00 | 38 | 1011.3 |
| 20260504172558 | 76 | 238 | 7.0 | 13.0 | 0.00 | 0.00 | 0.00 | 39 | 1011.6 |
| 20260504172057 | 76 | 200 | 7.0 | 13.0 | 0.00 | 0.00 | 0.00 | 40 | 1011.7 |
| 20260504171557 | 75 | 206 | 3.0 | 13.0 | 0.00 | 0.00 | 0.00 | 40 | 1011.6 |
| 20260504171055 | 75 | 142 | 5.0 | 11.0 | 0.00 | 0.00 | 0.00 | 43 | 1011.7 |
| 20260504170553 | 73 | 171 | 4.0 | 13.0 | 0.00 | 0.00 | 0.00 | 43 | 1011.6 |